sat.trackr.live / text

‹ back to catalog

STARLINK-35608

NORAD 66508 · 2025-263Z

PAYLOAD ACTIVE UNKNOWN

§ Identity

Operator
Country
US
Launch date
2025-11-15
Launch site
AFETR
Launch vehicle
Mass (kg)
RCS (m²)

Purposes: comms

External: N2YO · Heavens-Above · Gunter

§ Orbital elements

Epoch: 2026-09-19T06:30:39.882816Z

Period
94.27 min
Inclination
42.9981°
Eccentricity
0.0001113
Mean motion
15.27588939 rev/d
Perigee alt
482.3 km
Apogee alt
483.8 km
Semi-major
6,861.2 km
B*
4.9567e-4
RAAN
337.5340°
Arg perigee
239.6418°
Mean anomaly
120.4323°
Rev number
4,850

§ Raw data

STARLINK-356081 66508U 25263Z   26262.27129494  .00013406  00000+0  49567-3 0  99962 66508  42.9981 337.5340 0001113 239.6418 120.4323 15.27588939 48503

JSON: /api/v1/satellites/66508 · /tle

For live sub-satellite position, see the globe view (requires WebGL).

§ Visibility from observer

Set your observer location to see the next 7 days of passes ≥ 10°. The values pass through the URL so the page stays shareable.

No JS? Fill the form by hand. The geolocation button needs JavaScript.